| time (UTC) | temp C | wind direction | speed KPH | gust KPH | rain 1hr cm | rain 24hr cm | rain mn cm | humidity % | barometer mb |
| 20260507060054 | 7 | 254 | 1.6 | 11.3 | 0.00 | 0.00 | 0.00 | 70 | 1015.2 |
| 20260507054546 | 7 | 233 | 6.4 | 9.7 | 0.00 | 0.00 | 0.00 | 74 | 1015.0 |
| 20260507053042 | 6 | 197 | 0.0 | 3.2 | 0.00 | 0.00 | 0.00 | 75 | 1015.0 |
| 20260507051541 | 5 | 177 | 1.6 | 4.8 | 0.00 | 0.00 | 0.00 | 79 | 1014.8 |
| 20260507050040 | 3 | 258 | 0.0 | 0.0 | 0.00 | 0.00 | 0.00 | 84 | 1014.7 |
| 20260507044539 | 2 | 258 | 0.0 | 0.0 | 0.00 | 0.00 | 0.00 | 89 | 1014.6 |
| 20260507043038 | 1 | 258 | 0.0 | 0.0 | 0.00 | 0.00 | 0.00 | 89 | 1014.4 |
| 20260507041535 | 1 | 258 | 0.0 | 0.0 | 0.00 | 0.00 | 0.00 | 89 | 1014.5 |
| 20260507040036 | 0 | 258 | 0.0 | 0.0 | 0.00 | 0.00 | 0.00 | 89 | 1014.5 |
| 20260507034535 | 0 | 258 | 0.0 | 0.0 | 0.00 | 0.00 | 0.00 | 88 | 1014.3 |
| 20260507033032 | 0 | 258 | 0.0 | 0.0 | 0.00 | 0.00 | 0.00 | 87 | 1014.2 |
| 20260507031529 | 0 | 258 | 0.0 | 0.0 | 0.00 | 0.00 | 0.00 | 86 | 1014.2 |
| 20260507030028 | 0 | 258 | 0.0 | 0.0 | 0.00 | 0.00 | 0.00 | 86 | 1014.2 |
| 20260507024527 | 0 | 258 | 0.0 | 0.0 | 0.00 | 0.00 | 0.00 | 86 | 1014.0 |
| 20260507023025 | 0 | 258 | 0.0 | 0.0 | 0.00 | 0.00 | 0.00 | 86 | 1014.0 |
| 20260507021525 | 0 | 258 | 0.0 | 0.0 | 0.00 | 0.00 | 0.00 | 86 | 1013.9 |
| 20260507020029 | 0 | 258 | 0.0 | 0.0 | 0.00 | 0.00 | 0.00 | 85 | 1013.7 |
| 20260507014528 | 0 | 258 | 0.0 | 0.0 | 0.00 | 0.00 | 0.00 | 83 | 1013.7 |
| 20260507013039 | 0 | 258 | 0.0 | 1.6 | 0.00 | 0.00 | 0.00 | 83 | 1013.7 |
| 20260507011518 | 1 | 258 | 0.0 | 0.0 | 0.00 | 0.00 | 0.00 | 81 | 1013.5 |
| 20260507010115 | 1 | 258 | 0.0 | 3.2 | 0.00 | 0.00 | 0.00 | 80 | 1013.4 |
| 20260507004512 | 1 | 261 | 0.0 | 1.6 | 0.00 | 0.00 | 0.00 | 78 | 1013.3 |
| 20260507003008 | 1 | 261 | 0.0 | 1.6 | 0.00 | 0.00 | 0.00 | 78 | 1013.2 |
| 20260507001509 | 1 | 261 | 0.0 | 1.6 | 0.00 | 0.00 | 0.00 | 77 | 1013.2 |
| 20260507000004 | 2 | 261 | 0.0 | 3.2 | 0.00 | 0.00 | 0.00 | 76 | 1013.1 |
| 20260506234501 | 2 | 274 | 0.0 | 0.0 | 0.00 | 0.00 | 0.00 | 75 | 1013.2 |
| 20260506233110 | 3 | 274 | 0.0 | 1.6 | 0.00 | 0.00 | 0.00 | 72 | 1013.2 |
| 20260506231601 | 3 | 272 | 0.0 | 3.2 | 0.00 | 0.00 | 0.00 | 69 | 1013.2 |
| 20260506230054 | 3 | 252 | 0.0 | 3.2 | 0.00 | 0.00 | 0.00 | 67 | 1013.1 |
| 20260506224551 | 5 | 283 | 0.0 | 3.2 | 0.00 | 0.00 | 0.00 | 63 | 1012.9 |
| 20260506223047 | 5 | 290 | 0.0 | 4.8 | 0.00 | 0.00 | 0.00 | 61 | 1013.0 |
| 20260506221543 | 6 | 306 | 0.0 | 4.8 | 0.00 | 0.00 | 0.00 | 60 | 1012.9 |
| 20260506220041 | 6 | 297 | 0.0 | 6.4 | 0.00 | 0.00 | 0.00 | 61 | 1012.8 |
| 20260506214542 | 6 | 340 | 0.0 | 8.0 | 0.00 | 0.00 | 0.00 | 62 | 1012.8 |
| 20260506213051 | 6 | 342 | 0.0 | 3.2 | 0.00 | 0.00 | 0.00 | 65 | 1012.7 |
| 20260506211538 | 5 | 319 | 0.0 | 3.2 | 0.00 | 0.00 | 0.00 | 68 | 1012.5 |
| 20260506210037 | 5 | 300 | 0.0 | 3.2 | 0.00 | 0.00 | 0.00 | 69 | 1012.4 |
| 20260506204538 | 5 | 304 | 0.0 | 0.0 | 0.00 | 0.00 | 0.00 | 69 | 1012.3 |
| 20260506203036 | 5 | 304 | 0.0 | 1.6 | 0.00 | 0.00 | 0.00 | 67 | 1012.1 |
| 20260506201540 | 5 | 332 | 0.0 | 0.0 | 0.00 | 0.00 | 0.00 | 65 | 1012.1 |
| 20260506200036 | 6 | 332 | 0.0 | 3.2 | 0.00 | 0.00 | 0.00 | 64 | 1012.1 |
| 20260506194536 | 7 | 333 | 0.0 | 4.8 | 0.00 | 0.00 | 0.00 | 61 | 1012.1 |
| 20260506193037 | 7 | 325 | 0.0 | 4.8 | 0.00 | 0.00 | 0.00 | 58 | 1012.0 |
| 20260506191534 | 7 | 325 | 0.0 | 8.0 | 0.00 | 0.00 | 0.00 | 57 | 1012.1 |
| 20260506190034 | 8 | 340 | 3.2 | 14.5 | 0.00 | 0.00 | 0.00 | 54 | 1011.9 |
| 20260506184546 | 8 | 297 | 1.6 | 8.0 | 0.00 | 0.00 | 0.00 | 58 | 1011.7 |
| 20260506183045 | 8 | 352 | 3.2 | 9.7 | 0.00 | 0.00 | 0.00 | 59 | 1011.6 |
| 20260506181551 | 9 | 298 | 4.8 | 14.5 | 0.00 | 0.00 | 0.00 | 58 | 1011.6 |
| 20260506180035 | 10 | 325 | 3.2 | 12.9 | 0.00 | 0.00 | 0.00 | 60 | 1011.6 |
| 20260506174531 | 10 | 333 | 1.6 | 6.4 | 0.00 | 0.00 | 0.00 | 58 | 1011.5 |
| 20260506173035 | 10 | 286 | 3.2 | 19.3 | 0.00 | 0.00 | 0.00 | 58 | 1011.6 |
| 20260506171530 | 11 | 4 | 1.6 | 14.5 | 0.00 | 0.00 | 0.00 | 55 | 1011.5 |
| 20260506170030 | 11 | 275 | 3.2 | 9.7 | 0.00 | 0.00 | 0.00 | 53 | 1011.5 |
| 20260506164536 | 11 | 283 | 3.2 | 12.9 | 0.00 | 0.00 | 0.00 | 54 | 1011.5 |
| 20260506163029 | 11 | 9 | 3.2 | 11.3 | 0.00 | 0.00 | 0.00 | 53 | 1011.5 |
| 20260506161529 | 12 | 285 | 4.8 | 11.3 | 0.00 | 0.00 | 0.00 | 51 | 1011.5 |
| 20260506160030 | 12 | 325 | 4.8 | 12.9 | 0.00 | 0.00 | 0.00 | 50 | 1011.5 |
| 20260506154528 | 12 | 292 | 1.6 | 12.9 | 0.00 | 0.00 | 0.00 | 50 | 1011.5 |
| 20260506153026 | 12 | 286 | 4.8 | 14.5 | 0.00 | 0.00 | 0.00 | 46 | 1011.5 |
| 20260506151527 | 12 | 44 | 1.6 | 14.5 | 0.00 | 0.00 | 0.00 | 45 | 1011.5 |
| 20260506150031 | 12 | 254 | 1.6 | 9.7 | 0.00 | 0.00 | 0.00 | 47 | 1011.5 |
| 20260506144526 | 12 | 348 | 3.2 | 12.9 | 0.00 | 0.00 | 0.00 | 45 | 1011.4 |
| 20260506143026 | 13 | 249 | 3.2 | 16.1 | 0.00 | 0.00 | 0.00 | 42 | 1011.5 |
| 20260506141523 | 13 | 244 | 3.2 | 17.7 | 0.00 | 0.00 | 0.00 | 39 | 1011.6 |
| 20260506140025 | 13 | 4 | 4.8 | 19.3 | 0.00 | 0.00 | 0.00 | 38 | 1011.7 |
| 20260506134522 | 13 | 346 | 3.2 | 17.7 | 0.00 | 0.00 | 0.00 | 38 | 1011.5 |
| 20260506133021 | 13 | 200 | 6.4 | 17.7 | 0.00 | 0.00 | 0.00 | 39 | 1011.7 |
| 20260506131532 | 13 | 279 | 6.4 | 12.9 | 0.00 | 0.00 | 0.00 | 35 | 1011.5 |
| 20260506130023 | 13 | 244 | 4.8 | 16.1 | 0.00 | 0.00 | 0.00 | 36 | 1011.6 |
| 20260506124519 | 13 | 248 | 4.8 | 16.1 | 0.00 | 0.00 | 0.00 | 32 | 1011.7 |
| 20260506123017 | 13 | 298 | 3.2 | 20.9 | 0.00 | 0.00 | 0.00 | 33 | 1011.7 |
| 20260506121516 | 13 | 236 | 9.7 | 17.7 | 0.00 | 0.00 | 0.00 | 30 | 1011.8 |
| 20260506120019 | 13 | 240 | 9.7 | 20.9 | 0.00 | 0.00 | 0.00 | 31 | 1012.0 |
| 20260506114521 | 14 | 237 | 4.8 | 19.3 | 0.00 | 0.00 | 0.00 | 32 | 1011.9 |
| 20260506113025 | 13 | 288 | 8.0 | 22.5 | 0.00 | 0.00 | 0.00 | 35 | 1012.0 |
| 20260506111513 | 13 | 202 | 12.9 | 19.3 | 0.00 | 0.00 | 0.00 | 31 | 1011.9 |
| 20260506110012 | 13 | 223 | 8.0 | 27.4 | 0.00 | 0.00 | 0.00 | 31 | 1012.0 |
| 20260506104510 | 13 | 240 | 9.7 | 19.3 | 0.00 | 0.00 | 0.00 | 30 | 1012.0 |
| 20260506103012 | 13 | 238 | 11.3 | 24.1 | 0.00 | 0.00 | 0.00 | 30 | 1012.0 |
| 20260506101509 | 13 | 234 | 11.3 | 24.1 | 0.00 | 0.00 | 0.00 | 30 | 1012.0 |
| 20260506100008 | 12 | 236 | 14.5 | 20.9 | 0.00 | 0.00 | 0.00 | 28 | 1011.9 |
| 20260506094504 | 13 | 193 | 9.7 | 27.4 | 0.00 | 0.00 | 0.00 | 29 | 1012.1 |
| 20260506093058 | 12 | 247 | 11.3 | 17.7 | 0.00 | 0.00 | 0.00 | 32 | 1012.1 |
| 20260506091601 | 12 | 196 | 9.7 | 17.7 | 0.00 | 0.00 | 0.00 | 33 | 1012.0 |
| 20260506090100 | 12 | 179 | 8.0 | 16.1 | 0.00 | 0.00 | 0.00 | 32 | 1012.1 |
| 20260506084552 | 12 | 219 | 9.7 | 16.1 | 0.00 | 0.00 | 0.00 | 30 | 1012.0 |
| 20260506083048 | 11 | 182 | 11.3 | 19.3 | 0.00 | 0.00 | 0.00 | 31 | 1012.2 |
| 20260506081543 | 12 | 157 | 6.4 | 16.1 | 0.00 | 0.00 | 0.00 | 35 | 1012.2 |
| 20260506073033 | 10 | 127 | 4.8 | 16.1 | 0.00 | 0.00 | 0.00 | 35 | 1012.2 |
| 20260506071529 | 10 | 72 | 4.8 | 14.5 | 0.00 | 0.00 | 0.00 | 39 | 1012.3 |
| 20260506061515 | 6 | 80 | 0.0 | 9.7 | 0.00 | 0.00 | 0.00 | 59 | 1012.2 |